| time (UTC) | temp F | wind direction | speed knots | gust knots | rain 1hr in | rain 24hr in | rain mn in | humidity % | barometer mb |
| 20260505102028 | 62 | 293 | 3.5 | 10.4 | 0.00 | 0.00 | 0.00 | 76 | 1006.7 |
| 20260505101531 | 62 | 308 | 2.6 | 10.4 | 0.00 | 0.00 | 0.00 | 73 | 1006.5 |
| 20260505101028 | 62 | 248 | 1.7 | 10.4 | 0.00 | 0.00 | 0.00 | 73 | 1006.6 |
| 20260505100530 | 62 | 243 | 6.1 | 7.8 | 0.00 | 0.00 | 0.00 | 73 | 1006.6 |
| 20260505100029 | 62 | 256 | 0.0 | 9.6 | 0.00 | 0.00 | 0.00 | 73 | 1006.5 |
| 20260505095527 | 62 | 302 | 2.6 | 9.6 | 0.00 | 0.00 | 0.00 | 73 | 1006.5 |
| 20260505095030 | 62 | 264 | 1.7 | 9.6 | 0.00 | 0.00 | 0.00 | 73 | 1006.4 |
| 20260505094527 | 63 | 294 | 0.9 | 7.8 | 0.00 | 0.00 | 0.00 | 72 | 1006.3 |
| 20260505094030 | 63 | 293 | 2.6 | 7.8 | 0.00 | 0.00 | 0.00 | 72 | 1006.4 |
| 20260505093527 | 63 | 276 | 5.2 | 7.8 | 0.00 | 0.00 | 0.00 | 72 | 1006.4 |
| 20260505093033 | 63 | 273 | 2.6 | 8.7 | 0.00 | 0.00 | 0.00 | 72 | 1006.4 |
| 20260505092526 | 63 | 291 | 1.7 | 10.4 | 0.00 | 0.00 | 0.00 | 71 | 1006.4 |
| 20260505092029 | 63 | 301 | 5.2 | 10.4 | 0.00 | 0.00 | 0.00 | 71 | 1006.3 |
| 20260505091526 | 64 | 259 | 0.9 | 10.4 | 0.00 | 0.00 | 0.00 | 70 | 1006.3 |
| 20260505091029 | 64 | 276 | 2.6 | 9.6 | 0.00 | 0.00 | 0.00 | 70 | 1006.2 |
| 20260505090526 | 64 | 276 | 1.7 | 18.2 | 0.00 | 0.00 | 0.00 | 69 | 1006.1 |
| 20260505090030 | 64 | 294 | 3.5 | 18.2 | 0.00 | 0.00 | 0.00 | 69 | 1006.1 |
| 20260505085525 | 64 | 288 | 7.0 | 18.2 | 0.00 | 0.00 | 0.00 | 68 | 1005.9 |
| 20260505085026 | 64 | 290 | 2.6 | 10.4 | 0.00 | 0.00 | 0.00 | 68 | 1005.9 |
| 20260505084527 | 65 | 301 | 0.9 | 10.4 | 0.00 | 0.00 | 0.00 | 68 | 1005.8 |
| 20260505084025 | 65 | 281 | 1.7 | 11.3 | 0.00 | 0.00 | 0.00 | 67 | 1005.7 |
| 20260505083528 | 65 | 259 | 5.2 | 11.3 | 0.00 | 0.00 | 0.00 | 67 | 1005.7 |
| 20260505083025 | 65 | 249 | 0.9 | 11.3 | 0.00 | 0.00 | 0.00 | 66 | 1005.6 |
| 20260505082527 | 66 | 281 | 5.2 | 10.4 | 0.00 | 0.00 | 0.00 | 65 | 1005.7 |
| 20260505082024 | 66 | 235 | 1.7 | 10.4 | 0.00 | 0.00 | 0.00 | 64 | 1005.5 |
| 20260505081527 | 67 | 270 | 4.3 | 13.9 | 0.00 | 0.00 | 0.00 | 63 | 1005.5 |
| 20260505081024 | 67 | 93 | 0.9 | 13.9 | 0.00 | 0.00 | 0.00 | 62 | 1005.5 |
| 20260505080526 | 67 | 222 | 0.9 | 13.9 | 0.00 | 0.00 | 0.00 | 61 | 1005.5 |
| 20260505080024 | 67 | 273 | 7.8 | 20.9 | 0.00 | 0.00 | 0.00 | 61 | 1005.5 |
| 20260505075524 | 67 | 260 | 2.6 | 20.9 | 0.00 | 0.00 | 0.00 | 61 | 1005.5 |
| 20260505075026 | 67 | 257 | 3.5 | 20.9 | 0.00 | 0.00 | 0.00 | 62 | 1005.4 |
| 20260505074523 | 67 | 295 | 0.9 | 16.5 | 0.00 | 0.00 | 0.00 | 62 | 1005.2 |
| 20260505074025 | 67 | 330 | 2.6 | 16.5 | 0.00 | 0.00 | 0.00 | 61 | 1005.2 |
| 20260505073523 | 67 | 301 | 1.7 | 7.8 | 0.00 | 0.00 | 0.00 | 62 | 1005.0 |
| 20260505073026 | 67 | 293 | 2.6 | 8.7 | 0.00 | 0.00 | 0.00 | 61 | 1005.0 |
| 20260505072523 | 67 | 302 | 0.0 | 8.7 | 0.00 | 0.00 | 0.00 | 62 | 1004.9 |
| 20260505072023 | 67 | 309 | 1.7 | 9.6 | 0.00 | 0.00 | 0.00 | 62 | 1004.8 |
| 20260505071525 | 66 | 277 | 1.7 | 9.6 | 0.00 | 0.00 | 0.00 | 63 | 1004.9 |
| 20260505071022 | 66 | 309 | 2.6 | 9.6 | 0.00 | 0.00 | 0.00 | 63 | 1004.8 |
| 20260505070523 | 66 | 321 | 1.7 | 9.6 | 0.00 | 0.00 | 0.00 | 64 | 1004.8 |
| 20260505070024 | 66 | 274 | 3.5 | 10.4 | 0.00 | 0.00 | 0.00 | 65 | 1004.7 |
| 20260505065522 | 66 | 236 | 4.3 | 10.4 | 0.00 | 0.00 | 0.00 | 65 | 1004.7 |
| 20260505065022 | 66 | 187 | 0.0 | 10.4 | 0.00 | 0.00 | 0.00 | 65 | 1004.7 |
| 20260505064524 | 66 | 295 | 0.9 | 8.7 | 0.00 | 0.00 | 0.00 | 65 | 1004.8 |
| 20260505064021 | 66 | 238 | 5.2 | 9.6 | 0.00 | 0.00 | 0.00 | 66 | 1004.8 |
| 20260505063522 | 66 | 225 | 0.0 | 9.6 | 0.00 | 0.00 | 0.00 | 66 | 1004.9 |
| 20260505063025 | 66 | 232 | 3.5 | 9.6 | 0.00 | 0.00 | 0.00 | 66 | 1005.0 |
| 20260505062521 | 66 | 298 | 3.5 | 9.6 | 0.00 | 0.00 | 0.00 | 66 | 1004.9 |
| 20260505062024 | 66 | 231 | 1.7 | 9.6 | 0.00 | 0.00 | 0.00 | 67 | 1005.0 |
| 20260505061521 | 66 | 283 | 3.5 | 10.4 | 0.00 | 0.00 | 0.00 | 67 | 1005.0 |
| 20260505061020 | 66 | 267 | 0.0 | 10.4 | 0.00 | 0.00 | 0.00 | 67 | 1005.0 |
| 20260505060524 | 66 | 238 | 3.5 | 10.4 | 0.00 | 0.00 | 0.00 | 67 | 1004.9 |
| 20260505060021 | 65 | 242 | 2.6 | 8.7 | 0.00 | 0.00 | 0.00 | 67 | 1005.2 |
| 20260505055521 | 65 | 214 | 0.9 | 9.6 | 0.00 | 0.00 | 0.00 | 67 | 1005.2 |
| 20260505055022 | 65 | 322 | 0.0 | 9.6 | 0.00 | 0.00 | 0.00 | 67 | 1005.2 |
| 20260505054520 | 65 | 231 | 0.9 | 9.6 | 0.00 | 0.00 | 0.00 | 67 | 1005.4 |
| 20260505054022 | 65 | 193 | 0.0 | 8.7 | 0.00 | 0.00 | 0.00 | 68 | 1005.5 |
| 20260505053520 | 65 | 214 | 1.7 | 8.7 | 0.00 | 0.00 | 0.00 | 68 | 1005.5 |
| 20260505053020 | 65 | 256 | 0.9 | 8.7 | 0.00 | 0.00 | 0.00 | 68 | 1005.6 |
| 20260505052522 | 65 | 225 | 3.5 | 8.7 | 0.00 | 0.00 | 0.00 | 68 | 1005.7 |
| 20260505052019 | 65 | 302 | 0.0 | 12.2 | 0.00 | 0.00 | 0.00 | 69 | 1005.7 |
| 20260505051520 | 65 | 284 | 3.5 | 12.2 | 0.00 | 0.00 | 0.00 | 69 | 1005.8 |
| 20260505051022 | 65 | 235 | 1.7 | 12.2 | 0.00 | 0.00 | 0.00 | 69 | 1005.8 |
| 20260505050519 | 65 | 285 | 2.6 | 9.6 | 0.00 | 0.00 | 0.00 | 69 | 1005.8 |
| 20260505041517 | 65 | 252 | 0.0 | 6.1 | 0.00 | 0.00 | 0.00 | 71 | 1006.0 |
| 20260505041019 | 64 | 201 | 0.9 | 6.1 | 0.00 | 0.00 | 0.00 | 71 | 1006.0 |
| 20260505040518 | 64 | 278 | 0.0 | 5.2 | 0.00 | 0.00 | 0.00 | 72 | 1006.0 |
| 20260505040017 | 65 | 232 | 0.0 | 7.0 | 0.00 | 0.00 | 0.00 | 71 | 1005.9 |
| 20260505035517 | 64 | 233 | 0.0 | 7.0 | 0.00 | 0.00 | 0.00 | 71 | 1006.0 |
| 20260505035019 | 65 | 153 | 0.0 | 5.2 | 0.00 | 0.00 | 0.00 | 71 | 1006.1 |
| 20260505034516 | 65 | 271 | 0.0 | 5.2 | 0.00 | 0.00 | 0.00 | 71 | 1006.1 |
| 20260505034016 | 65 | 218 | 2.6 | 7.0 | 0.00 | 0.00 | 0.00 | 70 | 1006.0 |
| 20260505033517 | 65 | 235 | 1.7 | 9.6 | 0.00 | 0.00 | 0.00 | 70 | 1006.1 |
| 20260505033016 | 65 | 183 | 0.0 | 9.6 | 0.00 | 0.00 | 0.00 | 70 | 1006.1 |
| 20260505032516 | 65 | 238 | 0.9 | 10.4 | 0.00 | 0.00 | 0.00 | 71 | 1006.1 |
| 20260505032016 | 65 | 191 | 0.0 | 10.4 | 0.00 | 0.00 | 0.00 | 71 | 1006.1 |
| 20260505031517 | 65 | 260 | 0.0 | 10.4 | 0.00 | 0.00 | 0.00 | 71 | 1006.1 |
| 20260505031016 | 65 | 253 | 0.0 | 11.3 | 0.00 | 0.00 | 0.00 | 71 | 1006.2 |
| 20260505030515 | 65 | 163 | 3.5 | 11.3 | 0.00 | 0.00 | 0.00 | 71 | 1006.1 |
| 20260505030047 | 65 | 222 | 4.3 | 11.3 | 0.00 | 0.00 | 0.00 | 71 | 1006.2 |
| 20260505025518 | 65 | 195 | 4.3 | 11.3 | 0.00 | 0.00 | 0.00 | 71 | 1006.3 |
| 20260505025015 | 65 | 191 | 7.0 | 6.1 | 0.00 | 0.00 | 0.00 | 71 | 1006.3 |
| 20260505024515 | 65 | 226 | 0.9 | 7.8 | 0.00 | 0.00 | 0.00 | 71 | 1006.3 |
| 20260505024017 | 65 | 295 | 1.7 | 7.8 | 0.00 | 0.00 | 0.00 | 71 | 1006.3 |
| 20260505023544 | 65 | 246 | 0.9 | 7.8 | 0.00 | 0.00 | 0.00 | 71 | 1006.1 |
| 20260505023047 | 65 | 228 | 0.9 | 7.8 | 0.00 | 0.00 | 0.00 | 71 | 1006.2 |
| 20260505022544 | 65 | 158 | 0.0 | 7.8 | 0.00 | 0.00 | 0.00 | 71 | 1006.2 |
| 20260505022047 | 65 | 229 | 5.2 | 7.8 | 0.00 | 0.00 | 0.00 | 70 | 1006.2 |
| 20260505021544 | 65 | 239 | 3.5 | 7.8 | 0.00 | 0.00 | 0.00 | 70 | 1006.1 |
| 20260505021044 | 65 | 278 | 0.0 | 7.0 | 0.00 | 0.00 | 0.00 | 69 | 1006.1 |
| 20260505020544 | 65 | 160 | 0.9 | 7.0 | 0.00 | 0.00 | 0.00 | 69 | 1006.2 |
| 20260505020044 | 65 | 283 | 3.5 | 6.1 | 0.00 | 0.00 | 0.00 | 68 | 1006.1 |
| 20260505015545 | 65 | 148 | 0.0 | 8.7 | 0.00 | 0.00 | 0.00 | 68 | 1006.0 |
| 20260505015043 | 65 | 238 | 2.6 | 8.7 | 0.00 | 0.00 | 0.00 | 68 | 1006.1 |
| 20260505014543 | 65 | 231 | 1.7 | 8.7 | 0.00 | 0.00 | 0.00 | 67 | 1006.1 |
| 20260505014045 | 66 | 262 | 0.0 | 7.8 | 0.00 | 0.00 | 0.00 | 66 | 1006.2 |
| 20260505013542 | 66 | 176 | 0.9 | 7.8 | 0.00 | 0.00 | 0.00 | 66 | 1006.2 |
| 20260505013044 | 66 | 266 | 0.0 | 7.8 | 0.00 | 0.00 | 0.00 | 65 | 1006.2 |
| 20260505012542 | 66 | 129 | 0.0 | 7.0 | 0.00 | 0.00 | 0.00 | 65 | 1006.3 |
| 20260505012043 | 66 | 231 | 2.6 | 6.1 | 0.00 | 0.00 | 0.00 | 65 | 1006.3 |
| 20260505011544 | 66 | 215 | 0.0 | 6.1 | 0.00 | 0.00 | 0.00 | 64 | 1006.2 |
| 20260505011041 | 66 | 231 | 0.0 | 5.2 | 0.00 | 0.00 | 0.00 | 64 | 1006.2 |
| 20260505010542 | 66 | 285 | 0.0 | 7.0 | 0.00 | 0.00 | 0.00 | 63 | 1006.2 |
| 20260505010046 | 66 | 273 | 0.0 | 7.0 | 0.00 | 0.00 | 0.00 | 63 | 1006.1 |
| 20260505005541 | 67 | 263 | 5.2 | 7.0 | 0.00 | 0.00 | 0.00 | 63 | 1006.1 |
| 20260505005042 | 67 | 203 | 4.3 | 7.0 | 0.00 | 0.00 | 0.00 | 62 | 1006.1 |
| 20260505004543 | 67 | 225 | 0.0 | 9.6 | 0.00 | 0.00 | 0.00 | 62 | 1006.0 |
| 20260505004041 | 67 | 215 | 0.0 | 9.6 | 0.00 | 0.00 | 0.00 | 61 | 1006.0 |
| 20260505003541 | 67 | 219 | 1.7 | 9.6 | 0.00 | 0.00 | 0.00 | 61 | 1006.1 |
| 20260505003041 | 68 | 285 | 1.7 | 8.7 | 0.00 | 0.00 | 0.00 | 60 | 1006.0 |
| 20260505002542 | 68 | 249 | 0.0 | 12.2 | 0.00 | 0.00 | 0.00 | 59 | 1006.0 |
| 20260505002042 | 68 | 252 | 1.7 | 12.2 | 0.00 | 0.00 | 0.00 | 59 | 1005.9 |
| 20260505001540 | 68 | 255 | 1.7 | 13.9 | 0.00 | 0.00 | 0.00 | 58 | 1005.9 |
| 20260505001040 | 69 | 273 | 1.7 | 13.9 | 0.00 | 0.00 | 0.00 | 57 | 1005.9 |
| 20260505000540 | 69 | 245 | 5.2 | 13.9 | 0.00 | 0.00 | 0.00 | 56 | 1005.9 |
| 20260505000041 | 69 | 207 | 4.3 | 13.0 | 0.00 | 0.00 | 0.00 | 55 | 1005.8 |
| 20260504235540 | 70 | 277 | 4.3 | 13.0 | 0.00 | 0.00 | 0.00 | 55 | 1005.7 |
| 20260504235039 | 70 | 277 | 4.3 | 12.2 | 0.00 | 0.00 | 0.00 | 53 | 1005.6 |
| 20260504234539 | 70 | 242 | 0.9 | 12.2 | 0.00 | 0.00 | 0.00 | 52 | 1005.4 |
| 20260504234041 | 70 | 278 | 4.3 | 12.2 | 0.00 | 0.00 | 0.00 | 52 | 1005.2 |
| 20260504233539 | 70 | 273 | 1.7 | 10.4 | 0.00 | 0.00 | 0.00 | 52 | 1005.2 |
| 20260504233039 | 71 | 214 | 3.5 | 8.7 | 0.00 | 0.00 | 0.00 | 53 | 1005.0 |
| 20260504232541 | 71 | 280 | 2.6 | 9.6 | 0.00 | 0.00 | 0.00 | 52 | 1004.9 |
| 20260504232039 | 71 | 304 | 0.0 | 9.6 | 0.00 | 0.00 | 0.00 | 53 | 1004.9 |
| 20260504231538 | 71 | 280 | 0.9 | 9.6 | 0.00 | 0.00 | 0.00 | 52 | 1004.9 |
| 20260504231038 | 71 | 264 | 0.0 | 8.7 | 0.00 | 0.00 | 0.00 | 52 | 1005.0 |
| 20260504230538 | 71 | 269 | 0.9 | 9.6 | 0.00 | 0.00 | 0.00 | 53 | 1005.2 |
| 20260504230040 | 71 | 271 | 3.5 | 13.0 | 0.00 | 0.00 | 0.00 | 53 | 1005.4 |
| 20260504225538 | 70 | 277 | 1.7 | 13.0 | 0.00 | 0.00 | 0.00 | 54 | 1005.4 |
| 20260504225038 | 70 | 276 | 2.6 | 13.0 | 0.00 | 0.00 | 0.00 | 55 | 1005.4 |
| 20260504224538 | 71 | 225 | 2.6 | 9.6 | 0.00 | 0.00 | 0.00 | 55 | 1005.6 |
| 20260504224038 | 71 | 295 | 6.1 | 14.8 | 0.00 | 0.00 | 0.00 | 55 | 1005.7 |
| 20260504223538 | 71 | 256 | 1.7 | 14.8 | 0.00 | 0.00 | 0.00 | 54 | 1005.7 |
| 20260504223038 | 72 | 277 | 7.8 | 14.8 | 0.00 | 0.00 | 0.00 | 53 | 1005.6 |
| 20260504222537 | 72 | 273 | 0.0 | 19.1 | 0.00 | 0.00 | 0.00 | 55 | 1005.7 |
| 20260504222036 | 71 | 273 | 5.2 | 19.1 | 0.00 | 0.00 | 0.00 | 54 | 1005.6 |
| 20260504221537 | 71 | 276 | 0.0 | 19.1 | 0.00 | 0.00 | 0.00 | 55 | 1005.7 |
| 20260504221037 | 72 | 284 | 7.8 | 13.0 | 0.00 | 0.00 | 0.00 | 54 | 1005.8 |
| 20260504220538 | 72 | 297 | 6.1 | 13.0 | 0.00 | 0.00 | 0.00 | 54 | 1005.7 |
| 20260504220037 | 72 | 259 | 3.5 | 15.6 | 0.00 | 0.00 | 0.00 | 53 | 1005.8 |
| 20260504215536 | 72 | 325 | 1.7 | 23.5 | 0.00 | 0.00 | 0.00 | 55 | 1005.9 |
| 20260504215036 | 72 | 295 | 2.6 | 23.5 | 0.00 | 0.00 | 0.00 | 53 | 1005.8 |
| 20260504214536 | 72 | 198 | 15.6 | 23.5 | 0.00 | 0.00 | 0.00 | 52 | 1005.9 |
| 20260504214037 | 72 | 273 | 4.3 | 20.0 | 0.00 | 0.00 | 0.00 | 53 | 1005.8 |
| 20260504213536 | 73 | 235 | 0.0 | 20.0 | 0.00 | 0.00 | 0.00 | 53 | 1005.7 |
| 20260504213036 | 72 | 215 | 3.5 | 19.1 | 0.00 | 0.00 | 0.00 | 54 | 1005.7 |
| 20260504212535 | 72 | 257 | 3.5 | 19.1 | 0.00 | 0.00 | 0.00 | 54 | 1005.7 |
| 20260504212035 | 72 | 238 | 8.7 | 19.1 | 0.00 | 0.00 | 0.00 | 53 | 1005.8 |
| 20260504211536 | 72 | 280 | 0.9 | 13.9 | 0.00 | 0.00 | 0.00 | 54 | 1005.7 |
| 20260504211035 | 72 | 262 | 0.0 | 11.3 | 0.00 | 0.00 | 0.00 | 54 | 1005.7 |
| 20260504210534 | 73 | 267 | 3.5 | 11.3 | 0.00 | 0.00 | 0.00 | 54 | 1005.7 |
| 20260504210034 | 73 | 236 | 0.9 | 16.5 | 0.00 | 0.00 | 0.00 | 52 | 1005.7 |
| 20260504205534 | 73 | 297 | 4.3 | 16.5 | 0.00 | 0.00 | 0.00 | 53 | 1005.7 |
| 20260504205034 | 72 | 250 | 3.5 | 16.5 | 0.00 | 0.00 | 0.00 | 54 | 1005.8 |
| 20260504204534 | 72 | 252 | 1.7 | 13.0 | 0.00 | 0.00 | 0.00 | 54 | 1005.9 |
| 20260504204034 | 72 | 246 | 0.9 | 19.1 | 0.00 | 0.00 | 0.00 | 53 | 1006.1 |
| 20260504203534 | 73 | 267 | 4.3 | 19.1 | 0.00 | 0.00 | 0.00 | 53 | 1006.1 |
| 20260504203035 | 72 | 225 | 0.0 | 19.1 | 0.00 | 0.00 | 0.00 | 55 | 1006.1 |
| 20260504202534 | 72 | 162 | 11.3 | 14.8 | 0.00 | 0.00 | 0.00 | 54 | 1006.2 |
| 20260504202033 | 72 | 288 | 5.2 | 9.6 | 0.00 | 0.00 | 0.00 | 53 | 1006.3 |
| 20260504201533 | 72 | 305 | 7.0 | 9.6 | 0.00 | 0.00 | 0.00 | 53 | 1006.3 |
| 20260504201033 | 73 | 284 | 2.6 | 9.6 | 0.00 | 0.00 | 0.00 | 53 | 1006.3 |
| 20260504200533 | 73 | 325 | 1.7 | 7.8 | 0.00 | 0.00 | 0.00 | 52 | 1006.4 |
| 20260504200033 | 73 | 283 | 2.6 | 7.8 | 0.00 | 0.00 | 0.00 | 53 | 1006.4 |
| 20260504195532 | 73 | 238 | 2.6 | 7.8 | 0.00 | 0.00 | 0.00 | 53 | 1006.4 |
| 20260504195032 | 73 | 267 | 0.0 | 7.8 | 0.00 | 0.00 | 0.00 | 54 | 1006.5 |
| 20260504194532 | 73 | 255 | 1.7 | 7.8 | 0.00 | 0.00 | 0.00 | 53 | 1006.5 |
| 20260504194032 | 73 | 269 | 5.2 | 8.7 | 0.00 | 0.00 | 0.00 | 53 | 1006.7 |
| 20260504193532 | 73 | 290 | 3.5 | 8.7 | 0.00 | 0.00 | 0.00 | 52 | 1006.8 |
| 20260504193032 | 73 | 201 | 1.7 | 8.7 | 0.00 | 0.00 | 0.00 | 53 | 1006.8 |
| 20260504192534 | 73 | 281 | 2.6 | 7.8 | 0.00 | 0.00 | 0.00 | 51 | 1006.8 |
| 20260504192033 | 73 | 267 | 0.0 | 11.3 | 0.00 | 0.00 | 0.00 | 53 | 1006.8 |
| 20260504191532 | 73 | 302 | 3.5 | 11.3 | 0.00 | 0.00 | 0.00 | 51 | 1006.9 |
| 20260504191032 | 73 | 277 | 2.6 | 11.3 | 0.00 | 0.00 | 0.00 | 52 | 1006.9 |
| 20260504190532 | 73 | 291 | 0.0 | 11.3 | 0.00 | 0.00 | 0.00 | 51 | 1006.9 |
| 20260504190031 | 73 | 257 | 0.9 | 11.3 | 0.00 | 0.00 | 0.00 | 51 | 1007.0 |
| 20260504185531 | 73 | 243 | 3.5 | 13.0 | 0.00 | 0.00 | 0.00 | 52 | 1007.1 |
| 20260504185031 | 72 | 252 | 4.3 | 13.0 | 0.00 | 0.00 | 0.00 | 54 | 1007.1 |
| 20260504184531 | 73 | 287 | 2.6 | 13.0 | 0.00 | 0.00 | 0.00 | 53 | 1007.2 |
| 20260504184031 | 73 | 259 | 6.1 | 11.3 | 0.00 | 0.00 | 0.00 | 52 | 1007.6 |
| 20260504183530 | 73 | 273 | 0.9 | 9.6 | 0.00 | 0.00 | 0.00 | 54 | 1007.7 |
| 20260504183031 | 73 | 250 | 6.1 | 9.6 | 0.00 | 0.00 | 0.00 | 53 | 1007.7 |
| 20260504182530 | 72 | 101 | 0.0 | 9.6 | 0.00 | 0.00 | 0.00 | 55 | 1007.7 |
| 20260504182031 | 72 | 218 | 0.9 | 9.6 | 0.00 | 0.00 | 0.00 | 56 | 1007.8 |
| 20260504181531 | 72 | 287 | 3.5 | 9.6 | 0.00 | 0.00 | 0.00 | 54 | 1007.8 |
| 20260504181030 | 71 | 149 | 0.0 | 7.8 | 0.00 | 0.00 | 0.00 | 56 | 1007.7 |
| 20260504180530 | 71 | 285 | 5.2 | 13.0 | 0.00 | 0.00 | 0.00 | 56 | 1007.7 |
| 20260504180029 | 71 | 291 | 2.6 | 13.0 | 0.00 | 0.00 | 0.00 | 55 | 1007.8 |
| 20260504175529 | 71 | 212 | 0.0 | 13.0 | 0.00 | 0.00 | 0.00 | 54 | 1007.8 |
| 20260504175029 | 71 | 187 | 4.3 | 11.3 | 0.00 | 0.00 | 0.00 | 55 | 1007.9 |
| 20260504174528 | 70 | 263 | 0.9 | 11.3 | 0.00 | 0.00 | 0.00 | 57 | 1008.0 |
| 20260504174028 | 70 | 148 | 0.9 | 11.3 | 0.00 | 0.00 | 0.00 | 56 | 1008.0 |
| 20260504173528 | 71 | 293 | 4.3 | 10.4 | 0.00 | 0.00 | 0.00 | 55 | 1008.0 |
| 20260504173028 | 71 | 273 | 0.0 | 10.4 | 0.00 | 0.00 | 0.00 | 55 | 1008.1 |
| 20260504172528 | 70 | 240 | 1.7 | 10.4 | 0.00 | 0.00 | 0.00 | 55 | 1008.1 |
| 20260504172028 | 70 | 295 | 1.7 | 10.4 | 0.00 | 0.00 | 0.00 | 55 | 1008.1 |
| 20260504171528 | 70 | 253 | 2.6 | 10.4 | 0.00 | 0.00 | 0.00 | 56 | 1008.2 |
| 20260504171028 | 69 | 229 | 1.7 | 10.4 | 0.00 | 0.00 | 0.00 | 56 | 1008.2 |
| 20260504170527 | 69 | 256 | 0.9 | 10.4 | 0.00 | 0.00 | 0.00 | 55 | 1008.3 |
| 20260504151024 | 65 | 190 | 2.6 | 8.7 | 0.00 | 0.00 | 0.00 | 60 | 1009.0 |
| 20260504150524 | 64 | 245 | 2.6 | 10.4 | 0.00 | 0.00 | 0.00 | 59 | 1009.1 |
| 20260504141023 | 60 | 253 | 0.0 | 9.6 | 0.00 | 0.00 | 0.00 | 63 | 1009.4 |
| 20260504140522 | 60 | 293 | 1.7 | 7.0 | 0.00 | 0.00 | 0.00 | 65 | 1009.6 |
| 20260504130520 | 57 | 252 | 0.9 | 6.1 | 0.00 | 0.00 | 0.00 | 67 | 1010.0 |
| 20260504110516 | 50 | 197 | 0.0 | 7.8 | 0.00 | 0.00 | 0.00 | 75 | 1009.7 |